Duluth, MN

6:55 PM CDT on April 26, 2017 (GMT -0500)
Duluth International

Weather History for KDLH - September, 2013

Change the Weather History Date:

Monday, September 23, 2013

  Actual Average Record
Temperature  
Mean Temperature 58 °F 52 °F  
Max Temperature 66 °F 62 °F 85 °F (1891)
Min Temperature 50 °F 43 °F 28 °F (1928)
Degree Days  
Heating Degree Days 7 13  
Month to date heating degree days 136 197  
Since 1 July heating degree days 210 346  
Cooling Degree Days 0 0  
Month to date cooling degree days 23 13  
Year to date cooling degree days 374 203  
Growing Degree Days 8 (Base 50)    
Moisture  
Dew Point 47 °F    
Average Humidity 70    
Maximum Humidity 83    
Minimum Humidity 56    
Precipitation  
Precipitation 0.00 in 0.13 in 2.12 in (1940)
Month to date precipitation 0.90 3.21  
Year to date precipitation 22.49 23.91  
Snow  
Snow 0.00 in 0.10 in 0.00 in (2002)
Month to date snowfall 0.0 0.1  
Since 1 July snowfall 0.0 0.1  
Since 1 September snowfall 0.0 0.1  
Snow Depth 0.00 in    
Sea Level Pressure  
Sea Level Pressure 29.97 in    
Wind  
Wind Speed 11 mph (SE)    
Max Wind Speed 14 mph    
Max Gust Speed 20 mph    
Visibility 10 miles    
Events      
T = Trace of Precipitation, MM = Missing Value Source: NWS Daily Summary

Daily Weather History Graph

Daily Weather History Graph

Search for Another Location

Airport or City:

Trip Planner

Search our weather history database for the weather conditions in past years. The results will help you decide how hot, cold, wet, or windy it might be!

Date:

Astronomy

Sep. 23, 2013 Rise Set
Actual Time 6:57 AM CDT 7:03 PM CDT
Civil Twilight 6:26 AM CDT 7:34 PM CDT
Nautical Twilight 5:51 AM CDT 8:09 PM CDT
Astronomical Twilight 5:14 AM CDT 8:46 PM CDT
Moon 9:18 PM CDT (9/23) 11:34 AM CDT (9/23)
Length of Visible Light 13h 07m
Length of Day
12h 06m
Waning Gibbous, 81% of the Moon is Illuminated
Sep 23
Waning Gibbous
Sep 26
Last Quarter
Oct 4
New
Oct 11
First Quarter
Oct 18
Full

Hourly Weather History & Observations

Time (CDT) Temp. Dew Point Humidity Pressure Visibility Wind Dir Wind Speed Gust Speed Precip Events Conditions
12:55 AM 52.0 °F 46.0 °F 80% 29.95 in 10.0 mi SE 10.4 mph - N/A   Clear
1:55 AM 52.0 °F 46.0 °F 80% 29.96 in 10.0 mi SE 9.2 mph - N/A   Clear
2:55 AM 52.0 °F 45.0 °F 77% 29.96 in 10.0 mi SE 9.2 mph - N/A   Clear
3:55 AM 53.1 °F 45.0 °F 74% 29.96 in 10.0 mi SSE 11.5 mph - N/A   Clear
4:55 AM 52.0 °F 44.1 °F 74% 29.96 in 10.0 mi SE 10.4 mph - N/A   Clear
5:55 AM 51.1 °F 44.1 °F 77% 29.98 in 10.0 mi SE 9.2 mph - N/A   Clear
6:55 AM 50.0 °F 44.1 °F 80% 29.99 in 10.0 mi SE 6.9 mph - N/A   Clear
7:55 AM 51.1 °F 44.1 °F 77% 30.00 in 10.0 mi SE 10.4 mph - N/A   Clear
8:55 AM 54.0 °F 45.0 °F 72% 30.00 in 10.0 mi SSE 13.8 mph - N/A   Clear
9:55 AM 55.9 °F 46.0 °F 69% 30.00 in 10.0 mi SSE 11.5 mph - N/A   Partly Cloudy
10:55 AM 59.0 °F 46.9 °F 64% 30.00 in 10.0 mi SE 11.5 mph - N/A   Partly Cloudy
11:55 AM 62.1 °F 48.9 °F 62% 29.99 in 10.0 mi SE 12.7 mph - N/A   Clear
12:55 PM 64.0 °F 48.9 °F 58% 29.98 in 10.0 mi SE 12.7 mph - N/A   Clear
1:55 PM 64.9 °F 51.1 °F 61% 29.96 in 10.0 mi SE 11.5 mph 19.6 mph N/A   Clear
2:55 PM 66.0 °F 50.0 °F 56% 29.96 in 10.0 mi ESE 12.7 mph - N/A   Clear
3:55 PM 64.9 °F 48.9 °F 56% 29.95 in 10.0 mi ESE 13.8 mph - N/A   Clear
4:55 PM 64.0 °F 48.9 °F 58% 29.95 in 10.0 mi ESE 12.7 mph - N/A   Clear
5:55 PM 62.1 °F 50.0 °F 65% 29.95 in 10.0 mi ESE 12.7 mph - N/A   Clear
6:55 PM 57.9 °F 50.0 °F 75% 29.96 in 10.0 mi ESE 9.2 mph - N/A   Clear
7:55 PM 55.0 °F 48.9 °F 80% 29.97 in 10.0 mi East 8.1 mph - N/A   Partly Cloudy
8:55 PM 55.9 °F 48.9 °F 77% 29.97 in 10.0 mi ESE 8.1 mph - N/A   Clear
9:55 PM 55.0 °F 48.9 °F 80% 29.98 in 10.0 mi SE 8.1 mph - N/A   Clear
10:55 PM 54.0 °F 48.9 °F 83% 29.99 in 10.0 mi SE 8.1 mph - N/A   Clear
11:55 PM 57.0 °F 48.9 °F 74% 29.98 in 10.0 mi SSE 6.9 mph - N/A   Clear